This demonstration page uses our WeatherBlox Daily Observations layout. Learn more.

Left ArrowRight Arrow

36.17497, -115.13722

Hourly Observations for April 6, 2017

Temp ( °F °C ) Dew Point ( °F °C ) Humidity (%) Winds ( mph kmh ) Pressure ( in mb ) Visibility ( mi km ) Precip ( " mm )
12:53 am 00:53 Clear 58 14.4 27 -2.8 31 31 NNW 5 7 30.08 1019 10 16.0934 N/A
1:53 am 01:53 Clear 57 13.9 28 -2.2 33 33 NW 5 7 30.06 1018 10 16.0934 N/A
2:53 am 02:53 Clear 55 12.8 28 -2.2 35 35 NNW 5 7 30.04 1017 10 16.0934 N/A
3:53 am 03:53 Clear 54 12.2 27 -2.8 35 35 NW 3 6 30.04 1017 10 16.0934 N/A
4:53 am 04:53 Clear 53 11.7 28 -2.2 38 38 N N/A 30.04 1017 10 16.0934 N/A
5:53 am 05:53 Clear 55 12.8 27 -2.8 34 34 N N/A 30.04 1017 10 16.0934 N/A
6:53 am 06:53 Sunny 56 13.3 29 -1.7 36 36 N N/A 30.04 1017 10 16.0934 N/A
7:53 am 07:53 Sunny 61 16.1 24 -4.4 24 24 N N/A 30.05 1018 10 16.0934 N/A
8:53 am 08:53 Sunny 64 17.8 25 -3.9 23 23 ESE 5 7 30.04 1017 10 16.0934 N/A
9:53 am 09:53 Sunny 67 19.4 26 -3.3 21 21 SE 8 13 30.04 1017 10 16.0934 N/A
10:53 am 10:53 Sunny 71 21.7 25 -3.9 18 18 ESE 7 11 30.03 1017 10 16.0934 N/A
11:53 am 11:53 Sunny 73 22.8 23 -5 15 15 SSE 8 13 29.99 1016 10 16.0934 N/A
12:53 pm 12:53 Sunny 76 24.4 23 -5 14 14 SE 10 17 29.96 1015 10 16.0934 N/A
1:53 pm 13:53 Sunny 80 26.7 23 -5 12 12 SE 13 20 29.92 1013 10 16.0934 N/A
2:53 pm 14:53 Sunny 80 26.7 23 -5 12 12 SE 10 17 29.88 1012 10 16.0934 N/A
3:53 pm 15:53 Sunny 82 27.8 23 -5 11 11 ESE 12 19 29.86 1011 10 16.0934 N/A
4:53 pm 16:53 Sunny 82 27.8 20 -6.7 10 10 W 17 28 29.86 1011 10 16.0934 N/A
5:53 pm 17:53 Sunny 81 27.2 17 -8.3 9 9 WSW 13 20 29.85 1011 10 16.0934 N/A
6:53 pm 18:53 Sunny 80 26.7 20 -6.7 10 10 SW 13 20 29.86 1011 10 16.0934 N/A
7:53 pm 19:53 Clear 78 25.6 25 -3.9 14 14 SSW 8 13 29.86 1011 10 16.0934 N/A
8:53 pm 20:53 Clear 76 24.4 25 -3.9 15 15 S 9 15 29.87 1011 10 16.0934 N/A
9:53 pm 21:53 Clear 75 23.9 24 -4.4 15 15 SSW 9 15 29.89 1012 10 16.0934 N/A
10:53 pm 22:53 Clear 74 23.3 20 -6.7 13 13 SW 16 26 29.88 1012 10 16.0934 N/A
11:53 pm 23:53 Clear 73 22.8 20 -6.7 13 13 WSW 16 26 29.88 1012 10 16.0934 N/A

Powered by AerisWeather